STARLINK-5714, 55614

Orbit data source: Space-Track

STARLINK-5714, 55614 is a payload satellite owned by SpaceX/Seattle (US) in LEO that was launched on Sun, 12 Feb 2023 UTC via an FALCON 9 launch vehicle from the Air Force Eastern Test Range (AFETR). Payload-class satellites include a variety of spacecraft equipped with specific instruments for various scientific and technological missions. These include communications satellites like Starlink; space stations such as the ISS; scientific satellites like the Hubble; Earth observation satellites from companies like Planet Labs, Umbra, and HawkEye 360; GPS; miniature CubeSats for education and research; and military/defense satellites.

Loading next visibility...
Identifier
55614, 2023-020AX
Orbit
LEO
Country
Flag of USUS
Related business
Manufacturer
SpaceX/Seattle
Mission
Operational Commercial Communications
Bus & Motor
STARLINK, Unknown motor
Mass
305 kg wet, ~290 kg dry
Launch date (UTC)
2023-02-12 (4 years ago)
Launch vehicle
FALCON 9
Launch site
Air Force Eastern Test Range (AFETR)
Object type
Payload
Rocket body
Debris
Shape & HBR
Box + 1 Pan, 10.1 m
Radar Cross Section
13.562 m², Large (>1 m²)

Expand to show TLE details & history
Last TLE update: 12 hours ago

TLE from 12 hours ago
0 STARLINK-5714
1 55614U 23020AX  26264.41751718  .00000219  00000-0  17476-4 0  9993
2 55614  43.0033 314.0890 0001548 269.5019  90.5656 15.27578425199142
Epoch: 2026-09-21T10:01Z
TLE epoch observation values (Epoch: 2026-09-21T10:01:13.484Z)
Latitude
0.00003°
Longitude
163.48521°
Altitude
482.84 km
Speed
7.626 km/s
True Right ascension
20h 56m 21s
True Declination
0° 00' 00"
Sunlit
Object was in full shadow at epoch
Visualization orbit readout
Latitude
Unknown
Longitude
Unknown
Altitude
Unknown
Speed
Unknown
Apparent Right ascension
Unknown
Apparent Declination
Unknown
Sunlit
N/A
Visualization observer readout
Local Sidereal Time
15:13:02
Azimuth
Unknown
Elevation
Unknown
Doppler factor
Unknown
Orbital elements
Apogee altitude
486.061 km
Perigee altitude
483.936 km
Semi-major axis
6,863.135 km
Eccentricity
0.00015
Inclination
43.0033°
RAAN
314.089°
Arg. of periapsis
269.5019°
True anomaly
90.58334°
Mean anomaly
90.5656°
Eccentric anomaly
90.57447°
Mean motion
3.81733 °/min
Orbital period
94.31 mins
BSTAR
0.000017476
Loading maneuver chart data...
Computing Atmospheric mass density...
Loading historical data...
Loading historical data...
Loading historical data...
Loading historical data...
Loading historical data...
Loading historical data...
Loading historical data...

Documentation

Showing up to 5 results
|